AO-07 1 07530U 74089B 21196.18278108 -.00000036 00000-0 57845-4 0 9990 2 07530 101.8552 170.6579 0012110 331.0716 97.3732 12.53649403135209 UO-11 1 14781U 84021B 21196.25469461 .00000084 00000-0 16324-4 0 9994 2 14781 97.5927 194.7273 0008339 1.1288 358.9944 14.83302114990050 LO-19 1 20442U 90005G 21196.13746165 -.00000003 00000-0 15587-4 0 9992 2 20442 98.7429 151.8585 0012928 80.5406 279.7238 14.32991238644791 HUBBLE 1 20580U 90037B 21196.20511215 .00000414 00000-0 14050-4 0 9993 2 20580 28.4691 241.4525 0002715 7.6837 25.5770 15.09681390515218 MET-2/21 1 22782U 93055A 21196.27587021 .00000005 00000-0 -87512-5 0 9998 2 22782 82.5492 281.8266 0021752 210.5155 203.7671 13.83837756407370 AO-27 1 22825U 93061C 21196.29402790 -.00000019 00000-0 10585-4 0 9994 2 22825 98.9161 214.5913 0007669 319.7453 40.3159 14.30119131449968 IO-26 1 22826U 93061D 21196.25783907 -.00000016 00000-0 11886-4 0 9995 2 22826 98.9104 214.4603 0008020 305.4532 54.5901 14.30458703450205 FO-29 1 24278U 96046B 21196.10509074 -.00000035 00000-0 -21162-5 0 9990 2 24278 98.5657 260.4144 0351303 78.0839 285.9458 13.53105016229982 NOAA-15 1 25338U 98030A 21196.29172651 .00000062 00000-0 44389-4 0 9993 2 25338 98.6800 224.5650 0010101 193.3532 166.7382 14.26045055204963 GO-32 1 25397U 98043D 21196.30651606 -.00000014 00000-0 13406-4 0 9990 2 25397 98.7720 141.7844 0001799 41.8888 318.2427 14.23711522195452 ISS 1 25544U 98067A 21196.50222588 .00001653 00000-0 38394-4 0 9997 2 25544 51.6420 202.7017 0001929 155.9812 353.3840 15.48802829292984 NO-44 1 26931U 01043C 21196.28179620 -.00000058 00000-0 94127-5 0 9995 2 26931 67.0493 208.6181 0006156 261.8010 98.2393 14.30624900 33171 SO-50 1 27607U 02058C 21196.28758159 -.00000046 00000-0 13929-4 0 9990 2 27607 64.5547 253.2308 0043946 11.7934 348.4186 14.75765050998638 CO-55 1 27844U 03031E 21195.98219668 .00000026 00000-0 31135-4 0 9994 2 27844 98.6792 203.7760 0009972 6.7488 353.3822 14.22319752935899 CO-57 1 27848U 03031J 21195.98358519 .00000022 00000-0 29976-4 0 9993 2 27848 98.6847 204.3402 0010138 19.6951 340.4617 14.21895714935725 RS-22 1 27939U 03042A 21196.27872242 .00000100 00000-0 26655-4 0 9991 2 27939 98.1457 333.1843 0012774 186.2284 173.8775 14.66999230951601 NOAA-18 1 28654U 05018A 21196.28215003 .00000068 00000-0 60857-4 0 9993 2 28654 98.9925 261.2555 0014004 199.5282 160.5354 14.12622098832462 CO-58 1 28895U 05043F 21196.31287088 .00000123 00000-0 32366-4 0 9990 2 28895 98.0626 328.9482 0018005 120.7816 239.5162 14.63932070838080 Falconsat-3 1 30776U 07006E 21196.28838862 .00003584 00000-0 85832-4 0 9990 2 30776 35.4340 281.3037 0002298 177.5528 182.5212 15.41036997797407 CO-65 1 32785U 08021C 21195.75496094 .00000221 00000-0 29241-4 0 9995 2 32785 97.6123 173.5404 0011360 273.7087 86.2831 14.88749315716231 AAUSAT2 1 32788U 08021F 21195.91978290 .00000741 00000-0 71519-4 0 9991 2 32788 97.5049 189.4262 0011882 169.7378 190.4088 14.95637523717962 DO-64 1 32789U 08021G 21196.33081493 .00001333 00000-0 87741-4 0 9991 2 32789 97.3742 230.6217 0013027 52.7521 307.4894 15.09120277721031 CO-66 1 32791U 08021J 21195.53416684 .00000139 00000-0 19224-4 0 9993 2 32791 97.5719 179.2131 0011788 232.0248 127.9907 14.91444873716815 RS-30 1 32953U 08025A 21194.94823435 .00000021 00000-0 80971-4 0 9994 2 32953 82.5036 34.4514 0018759 281.0643 78.8330 12.43102352596274 PRISM 1 33493U 09002B 21196.12142187 .00001189 00000-0 10679-3 0 9993 2 33493 98.1910 160.0001 0014375 187.7139 172.3862 14.97729294678460 NOAA-19 1 33591U 09005A 21196.24802100 .00000040 00000-0 46878-4 0 9992 2 33591 99.1818 217.6402 0014789 57.2239 303.0355 14.12482353640583 SRMSAT 1 37841U 11058D 21196.16374674 .00000278 00000-0 75734-5 0 9993 2 37841 19.9715 133.5914 0011757 237.5607 251.1462 14.10698774503572 HRBE 1 37855U 11061F 21196.29378325 .00002550 00000-0 12853-3 0 9999 2 37855 101.7118 134.1291 0166357 347.9804 11.7461 15.07862411530376 RS-40 1 38735U 12041C 21194.76198717 -.00000002 00000-0 -88163-4 0 9991 2 38735 82.4780 116.6953 0018288 31.7335 328.4844 12.42583024406450 ZACUBE-1 1 39417U 13066B 21196.20878915 .00000245 00000-0 36672-4 0 9998 2 39417 97.5938 179.0993 0060132 70.6729 290.0974 14.81540936413187 GOMX-1 1 39430U 13066Q 21196.09026493 .00000255 00000-0 54627-4 0 9997 2 39430 97.8139 117.5728 0151680 28.2332 332.6962 14.59634297407079 LO-74 1 39440U 13066AA 21195.90327695 .00000163 00000-0 29439-4 0 9996 2 39440 97.6776 163.8965 0080600 145.5213 215.1264 14.76265637411674 AO-73 1 39444U 13066AE 21195.90590940 .00000291 00000-0 41479-4 0 9995 2 39444 97.5841 181.1812 0059107 62.1052 298.6131 14.82454328411502 SPROUT 1 39770U 14029E 21196.10586879 .00000909 00000-0 10378-3 0 9995 2 39770 97.9188 307.3580 0009837 111.4325 248.7718 14.88499722387458 DTUSAT-2 1 40030U 14033W 21196.30983918 .00000211 00000-0 28423-4 0 9995 2 40030 97.9159 123.5507 0013378 83.8031 276.4709 14.89020127383460 EO-80 1 40032U 14033Y 21196.27383373 .00000289 00000-0 36697-4 0 9999 2 40032 97.9165 123.5218 0013306 84.6236 275.6498 14.88978130383950 HODOYOSHI-1 1 40299U 14070B 21196.45014211 .00000630 00000-0 28183-4 0 9998 2 40299 97.2850 269.2720 0011083 247.4708 168.9155 15.24787899371680 FIREBIRD FU3 1 40377U 15003B 21196.08898584 .00002989 00000-0 10990-3 0 9999 2 40377 99.1036 343.1162 0117923 80.4503 281.0030 15.22685893357002 FIREBIRD FU4 1 40378U 15003C 21195.99874626 .00002906 00000-0 10674-3 0 9998 2 40378 99.1042 343.1522 0118002 80.5487 280.9060 15.22737510356982 GRIFEX 1 40379U 15003D 21196.28300140 .00002615 00000-0 10710-3 0 9995 2 40379 99.0996 332.5749 0128894 112.4958 248.9976 15.18245267356406 NO-84 1 40654U 15025D 21194.79737370 .00030738 00000-0 19611-3 0 748 2 40654 54.9793 277.1274 0073014 133.1676 227.5501 15.72435568 11190 XW-2A 1 40903U 15049E 21196.39936549 .00002190 00000-0 47404-4 0 9997 2 40903 97.2330 250.7957 0010303 273.7081 142.1826 15.45522698327117 XW-2C 1 40906U 15049H 21196.40396028 .00000810 00000-0 44545-4 0 9994 2 40906 97.4854 198.4074 0016329 89.7473 20.0857 15.16805705321804 XW-2D 1 40907U 15049J 21196.39210646 .00000894 00000-0 48357-4 0 9991 2 40907 97.4836 198.1984 0015706 86.6318 22.3965 15.17135033321833 LILACSAT-2 1 40908U 15049K 21196.44299112 .00000117 00000-0 99121-5 0 9997 2 40908 97.5032 196.0527 0017260 101.0585 57.4041 15.14475071321467 XW-2E 1 40909U 15049L 21196.29099716 .00001132 00000-0 56217-4 0 9995 2 40909 97.4651 202.1439 0014852 74.8922 342.8667 15.19641748322165 XW-2F 1 40910U 15049M 21196.30327814 .00001155 00000-0 58116-4 0 9997 2 40910 97.4713 201.2359 0015894 74.6831 341.9900 15.19142330321950 XW-2B 1 40911U 15049N 21196.39620859 .00000926 00000-0 50090-4 0 9990 2 40911 97.4839 198.8805 0015606 87.8636 19.9462 15.17051447321723 DCBB 1 40912U 15049P 21196.39483264 .00001425 00000-0 65891-4 0 9998 2 40912 97.4432 205.7026 0015723 49.2140 58.1485 15.21698272322446 TW-1A 1 40928U 15051D 21196.35796593 .00003549 00000-0 73999-4 0 9993 2 40928 97.0746 220.5915 0009429 177.7942 239.9688 15.46168129326002 IO-86 1 40931U 15052B 21196.03234205 .00000767 00000-0 17742-4 0 9993 2 40931 6.0030 55.6661 0013240 71.2622 289.0141 14.76681788313386 ATHENOXAT-1 1 41168U 15077C 21195.91141608 .00002186 00000-0 75236-4 0 9992 2 41168 14.9885 59.1128 0010452 196.3027 269.7943 15.15818435308959 ChubuSat-2 1 41338U 16012B 21195.87396906 .00000323 00000-0 18261-4 0 9995 2 41338 31.0044 11.5377 0013534 44.6719 315.5005 15.00551463296729 ChubuSat-3 1 41339U 16012C 21195.89432897 .00000337 00000-0 19264-4 0 9997 2 41339 31.0133 8.6062 0013384 52.2267 307.9599 15.00697263296725 Horyu-4 1 41340U 16012D 21195.80090820 .00000480 00000-0 29200-4 0 9996 2 41340 31.0062 352.4351 0013555 84.0080 276.2101 15.01927539296905 e-st@r-II 1 41459U 16025D 21196.01540051 .00000539 00000-0 30551-4 0 9997 2 41459 98.1457 333.8647 0158974 330.1869 29.0211 15.08217709286570 AAUSAT4 1 41460U 16025E 21195.92140191 .00001624 00000-0 79005-4 0 9992 2 41460 98.1466 337.7822 0145418 313.7371 45.1909 15.11350101286867 LO-87 1 41557U 16033B 21196.33125021 .00001565 00000-0 57098-4 0 9991 2 41557 97.3950 290.1154 0014060 131.1529 314.7981 15.29585770285795 NuSat2 1 41558U 16033C 21196.35918163 .00001576 00000-0 53957-4 0 9993 2 41558 97.4061 294.0910 0013309 124.8387 320.1493 15.31678230285997 Lapan A3 1 41603U 16040E 21196.36519824 .00000256 00000-0 14915-4 0 9999 2 41603 97.2525 242.2338 0011603 265.6250 150.1108 15.20056342280821 Pratham 1 41783U 16059A 21196.09307079 .00000044 00000-0 17442-4 0 9998 2 41783 97.9621 245.2499 0034129 156.6635 203.6126 14.63150597256290 TY-1 1 41844U 16066D 21196.39770817 .00000977 00000-0 40887-4 0 9995 2 41844 97.3973 206.3241 0015897 44.2260 63.1986 15.25869146260162 CAS-2T 1 41847U 16066G 21196.09586936 .00000132 00000-0 29332-4 0 9997 2 41847 98.5994 255.3397 0366108 137.7699 225.2313 14.38209595245858 EO-88 1 42017U 17008BX 21196.12621802 .00001963 00000-0 73750-4 0 9996 2 42017 97.3145 263.2311 0006405 26.7663 333.3907 15.28343320245480 CAS-4B 1 42759U 17034B 21195.95116465 .00000421 00000-0 38623-4 0 9990 2 42759 43.0185 29.9012 0009777 332.5523 174.5716 15.10264938225308 CAS-4A 1 42761U 17034D 21195.94011343 .00000433 00000-0 39241-4 0 9991 2 42761 43.0181 28.9969 0010089 332.9236 171.8316 15.10352696225305 NIUSat 1 42766U 17036B 21196.11102368 .00001197 00000-0 53868-4 0 9995 2 42766 97.2479 241.1230 0016756 79.9973 280.3154 15.22834769225422 Aalto 1 1 42775U 17036L 21196.08493472 .00000928 00000-0 42554-4 0 9991 2 42775 97.2448 241.3338 0015239 79.3900 280.9052 15.22764042225405 URSA MAIOR 1 42776U 17036M 21196.08254336 .00001050 00000-0 47374-4 0 9998 2 42776 97.2462 241.8134 0015023 78.8821 281.4104 15.23035907225426 Max Valier Sat 1 42778U 17036P 21196.08381394 .00001135 00000-0 50028-4 0 9999 2 42778 97.2530 243.7872 0013644 81.0765 279.2016 15.23708500225494 Pegasus 1 42784U 17036V 21196.07066156 .00001418 00000-0 60271-4 0 9996 2 42784 97.2483 244.2622 0013188 83.7053 276.5687 15.24552359225561 NUDATSat 1 42787U 17036Y 21196.36918810 .00003270 00000-0 12751-3 0 9991 2 42787 97.2528 247.0491 0012351 71.6387 288.6194 15.26565166225598 SUCHAI 1 1 42788U 17036Z 21195.92396923 .00001728 00000-0 71149-4 0 9991 2 42788 97.2494 245.1453 0012662 81.6641 278.6033 15.25367145225673 SKCUBE 1 42789U 17036AA 21195.89235673 .00001575 00000-0 65624-4 0 9993 2 42789 97.2487 244.8138 0012596 82.3718 277.8950 15.25092305225572 VZLUSAT 1 1 42790U 17036AB 21196.10152272 .00002400 00000-0 94438-4 0 9996 2 42790 97.2516 246.7794 0011934 78.2495 282.0083 15.26527510225709 VENTA 1 1 42791U 17036AC 21196.07131466 .00001461 00000-0 61159-4 0 9995 2 42791 97.2484 244.9980 0012288 82.3045 277.9588 15.25033860225590 Robusta 1B 1 42792U 17036AD 21196.11931687 .00001735 00000-0 71492-4 0 9999 2 42792 97.2490 245.4239 0012163 81.6510 278.6107 15.25336266225649 D-SAT 1 42794U 17036AF 21195.99756005 .00000455 00000-0 43988-4 0 9992 2 42794 97.4599 214.4252 0126680 133.4083 227.7767 14.91601011221160 TechnoSat 1 42829U 17042E 21196.23263709 .00000172 00000-0 22496-4 0 9997 2 42829 97.4657 64.2894 0015571 57.9350 302.3379 14.91305159217821 QIKCOM-1 1 42983U 98067NF 21196.32376538 .00007593 00000-0 74136-4 0 9991 2 42983 51.6361 117.7162 0003899 92.8779 267.2664 15.67327310211772 AO-91 1 43017U 17073E 21196.26378215 .00000309 00000-0 29525-4 0 9995 2 43017 97.7045 99.1499 0253989 209.3761 149.2973 14.79598899197230 EcAMSat 1 43019U 98067NG 21196.25355943 .00030598 00000-0 15537-3 0 9991 2 43019 51.6379 80.4791 0003071 99.2373 260.8976 15.81199981294581 PICSAT 1 43132U 18004X 21196.19045152 .00001513 00000-0 61633-4 0 9995 2 43132 97.4084 270.4848 0010650 108.1023 252.1376 15.25986796194915 AO-92 1 43137U 18004AC 21196.14819502 .00001312 00000-0 54795-4 0 9991 2 43137 97.4058 269.8971 0010385 110.6472 249.5881 15.25365530194885 TianYi 2 1 43155U 18008A 21196.43919044 .00001138 00000-0 68853-4 0 9995 2 43155 97.4006 260.5649 0015821 228.3031 188.6833 15.12518113192304 Zhou Enlai 1 43156U 18008B 21196.44704925 .00001151 00000-0 70379-4 0 9998 2 43156 97.4051 260.4078 0013010 227.7050 188.1377 15.12129419192240 TianYi 6 1 43158U 18008D 21196.40038516 .00000379 00000-0 26042-4 0 9991 2 43158 97.3976 258.8966 0011944 227.9949 190.0713 15.11543750192161 S-Net D 1 43186U 18014G 21195.29215867 .00000789 00000-0 73380-4 0 9993 2 43186 97.6760 102.3958 0010825 1.9192 358.2069 14.97087441188314 S-Net B 1 43187U 18014H 21196.29465372 .00000772 00000-0 71863-4 0 9999 2 43187 97.6757 103.3457 0010753 358.6680 1.4511 14.97088532188467 S-Net A 1 43188U 18014J 21196.29472657 .00000777 00000-0 72369-4 0 9991 2 43188 97.6760 103.3917 0010754 358.8203 1.2991 14.97087417188468 S-Net C 1 43189U 18014K 21196.29521021 .00000764 00000-0 71177-4 0 9994 2 43189 97.6757 103.3387 0010767 358.5871 1.5319 14.97087461187014 FMN 1 1 43192U 18015A 21195.91766010 .00002761 00000-0 10275-3 0 9996 2 43192 97.4930 331.4276 0015392 141.0094 339.6464 15.28262031191789 Shaonian Xing 1 43199U 18015H 21195.95100667 .00001999 00000-0 76432-4 0 9997 2 43199 97.4709 328.5173 0016550 150.4825 327.9194 15.27685017191845 SurfSat 1 43614U 18070B 21196.31449426 .00004112 00000-0 95177-4 0 9997 2 43614 93.0347 317.5992 0011438 251.5641 108.4372 15.42442509158963 CP-7 DAVE 1 43615U 18070C 21196.27221642 .00003728 00000-0 87180-4 0 9998 2 43615 93.0351 317.5338 0011631 252.1396 107.8592 15.42140801158947 ELFIN-B 1 43616U 18070D 21196.30582396 .00006840 00000-0 14405-3 0 9996 2 43616 93.0304 317.7720 0011496 248.0410 111.9626 15.45217112159075 ELFIN-A 1 43617U 18070E 21196.32160027 .00007479 00000-0 15486-3 0 9991 2 43617 93.0353 318.6519 0010972 243.6091 116.4041 15.45717094159097 CubeBel-1 1 43666U 18083E 21196.36179463 .00001149 00000-0 57307-4 0 9994 2 43666 97.4526 224.3770 0016243 73.0856 345.5960 15.19450644150254 Changshagaoxin 1 43669U 18083H 21196.37394944 .00001199 00000-0 61836-4 0 9998 2 43669 97.4442 221.3767 0012434 69.7746 347.5954 15.18206135150129 Ten-Koh 1 43677U 18084G 21196.31582384 .00000055 00000-0 11580-4 0 9990 2 43677 97.9237 319.4298 0014762 305.9679 54.0169 14.90485489147459 PO-101 1 43678U 18084H 21196.02183188 -.00000334 00000-0 -27387-4 0 9992 2 43678 97.9282 321.4465 0009344 327.9692 32.0909 14.91760272147543 IRVINE 01 1 43693U 18088D 21195.90346659 .00003337 00000-0 12858-3 0 9993 2 43693 85.0350 176.7133 0013619 286.1851 73.7894 15.25853897148629 QO-100 1 43700U 18090A 21196.27023869 .00000148 00000-0 00000-0 0 9991 2 43700 0.0166 40.6385 0001602 105.3789 270.4385 1.00272876 9648 Reaktor Hello World 1 43743U 18096AA 21196.00379178 .00001590 00000-0 59050-4 0 9997 2 43743 97.3854 273.3067 0017324 173.4499 186.6970 15.28926141146345 MinXSS-2 1 43758U 18099A 21196.19249843 .00000359 00000-0 37032-4 0 9999 2 43758 97.6653 266.8092 0014384 319.7095 40.3059 14.96093020142666 AO-95 1 43770U 18099N 21196.15307364 .00000467 00000-0 47444-4 0 9990 2 43770 97.6640 265.7273 0013564 330.9309 29.1155 14.95358514142592 RANGE-B 1 43772U 18099Q 21196.17576638 -.00000039 00000-0 16742-5 0 9990 2 43772 97.6726 266.7879 0012964 316.5141 43.5057 14.95664670142605 RANGE-A 1 43773U 18099R 21196.16061358 -.00000037 00000-0 18008-5 0 9993 2 43773 97.6573 265.0303 0012375 317.3959 42.6301 14.95241352142589 MOVE-II 1 43780U 18099Y 21196.17003622 .00000062 00000-0 10639-4 0 9990 2 43780 97.6658 266.3104 0012451 327.4028 32.6423 14.95980914142610 SNUSat 2 1 43782U 18099AA 21196.18133408 -.00000027 00000-0 27465-5 0 9997 2 43782 97.6635 266.1060 0011602 315.6586 44.3705 14.95593719142617 SnugLite 1 43784U 18099AC 21196.18737560 .00000224 00000-0 25243-4 0 9997 2 43784 97.6597 265.8312 0013987 322.9661 37.0594 14.95721816142633 ITASat 1 1 43786U 18099AE 21196.13379349 .00000551 00000-0 54689-4 0 9990 2 43786 97.6657 266.4059 0014015 322.6800 37.3446 14.95645006142626 EAGLET 1 1 43790U 18099AJ 21196.16183435 .00000198 00000-0 22760-4 0 9999 2 43790 97.6651 266.8565 0012494 327.9513 32.0947 14.95997961142357 ESEO 1 43792U 18099AL 21196.15104359 .00000431 00000-0 43713-4 0 9999 2 43792 97.6615 266.4164 0012227 325.1081 34.9337 14.95756578142401 CSIM 1 43793U 18099AM 21196.15984251 .00000544 00000-0 52681-4 0 9996 2 43793 97.6650 266.8595 0011617 321.0248 39.0135 14.96647296142415 Astrocast 0.1 1 43798U 18099AS 21196.17423790 -.00000184 00000-0 -11185-4 0 9995 2 43798 97.6655 267.0760 0011103 305.7729 54.2459 14.96226041142661 JO-97 1 43803U 18099AX 21196.15991403 .00000232 00000-0 25863-4 0 9991 2 43803 97.6622 266.1801 0014005 323.2456 36.7804 14.95901871142630 Suomi 100 1 43804U 18099AY 21196.16595764 -.00000050 00000-0 62694-6 0 9997 2 43804 97.6618 266.1505 0014152 323.1288 36.8959 14.95870554142648 Al Farabi 2 1 43805U 18099AZ 21196.43041697 .00001034 00000-0 96940-4 0 9990 2 43805 97.6628 266.6416 0014054 322.8400 37.1847 14.96103466142696 CHOMPTT 1 43855U 18104G 21196.29333717 .00001077 00000-0 42453-4 0 9990 2 43855 85.0372 275.0505 0018652 49.4402 310.8461 15.24080766143337 ISAT 1 43879U 18111D 21196.00757943 .00000145 00000-0 17762-4 0 9994 2 43879 97.6834 102.7790 0013650 15.8929 344.2762 14.96664519137173 UWE-4 1 43880U 18111E 21196.25864817 -.00000066 00000-0 -67553-6 0 9991 2 43880 97.6848 103.5165 0012738 17.0796 343.0852 14.96904418139249 Sparrow 1 43881U 18111F 21196.29518044 .00000932 00000-0 86025-4 0 9997 2 43881 97.6863 103.6893 0012888 16.7146 343.4498 14.96965110139254 Lume 1 1 43908U 18111AJ 21196.25784191 .00001160 00000-0 47147-4 0 9997 2 43908 97.2305 90.0781 0019989 187.8641 172.2287 15.26337552141912 FO-98 1 43933U 19003B 21196.07714206 .00009572 00000-0 35603-3 0 9994 2 43933 97.1808 236.4569 0013694 296.6397 63.3440 15.27622676138328 FO-99 1 43937U 19003F 21196.19379287 .00001410 00000-0 57448-4 0 9992 2 43937 97.1741 238.2631 0021227 274.4245 85.4569 15.25877079138497 MYSat 1 1 44045U 18092F 21196.24291275 .00003143 00000-0 86732-4 0 9999 2 44045 51.6380 290.5428 0009982 309.5557 50.4545 15.40243557135743 AstroCast 0.2 1 44083U 19018F 21196.17265891 .00001245 00000-0 56361-4 0 9993 2 44083 97.3711 256.7334 0011488 229.9866 130.0363 15.22683846127116 AISTechSat 3 1 44103U 19018AB 21196.36898558 .00000855 00000-0 38020-4 0 9997 2 44103 97.3573 257.3270 0011501 242.9676 179.1142 15.24155109127264 AISat 1 1 44104U 19018AC 21196.16449074 .00000872 00000-0 29468-4 0 9996 2 44104 97.4251 273.5070 0054898 256.3098 103.2028 15.32155070127919 Raavana-1 1 44329U 98067QE 21196.25849102 .00069502 00000-0 35123-3 0 9991 2 44329 51.6341 141.1823 0004894 58.4861 301.6618 15.80920040118555 Uguisu 1 44330U 98067QF 21196.20473095 .00065695 00000-0 34399-3 0 9995 2 44330 51.6297 142.2138 0005109 53.8316 306.3158 15.80165641118517 NepaliSat-1 1 44331U 98067QG 21196.25631781 .00068003 00000-0 34587-3 0 9994 2 44331 51.6315 141.0641 0004944 56.7397 303.4078 15.80788400118548 Prox-1 1 44339U 19036A 21196.23967893 .00000766 00000-0 12991-3 0 9992 2 44339 23.9992 159.1995 0011648 124.7502 235.4087 14.53632426109307 Oculus-ASR 1 44348U 19036K 21196.32083814 .00017865 00000-0 23875-3 0 9995 2 44348 28.5143 308.3586 0326546 208.6810 149.5460 15.12990106113134 Armadillo 1 44352U 19036P 21196.28355688 .00025142 00000-0 31138-3 0 9994 2 44352 28.5297 285.2183 0293847 244.5019 112.4909 15.21095579113319 NO-104 1 44354U 19036R 21196.32105581 .00017778 00000-0 23164-3 0 9992 2 44354 28.5300 301.1330 0321348 218.3249 139.4098 15.14540677113202 NO-103 1 44355U 19036S 21196.30720159 .00033678 -61287-5 34062-3 0 9991 2 44355 28.5273 251.4533 0254437 299.3577 58.1834 15.31990437113703 CP9 1 44360U 19036X 21196.28892100 .00097885 -38966-5 57294-3 0 9990 2 44360 28.4999 178.4147 0165460 60.3475 301.3496 15.59910585114289 Move-IIb 1 44398U 19038N 21196.47057845 .00001215 00000-0 70742-4 0 9991 2 44398 97.5856 160.3537 0023032 210.0428 149.9478 15.13768296112006 SONATE 1 44400U 19038Q 21196.43026936 .00000561 00000-0 35769-4 0 9991 2 44400 97.5920 160.1657 0023757 211.0266 148.9560 15.12598796111968 BeeSat 9 1 44412U 19038AC 21195.84437123 .00000889 00000-0 53391-4 0 9996 2 44412 97.5895 159.8790 0020987 216.4248 143.5557 15.13362681111595 JAISAT-1 1 44419U 19038F 21196.13586960 .00000884 00000-0 52426-4 0 9993 2 44419 97.5899 160.7385 0019944 213.1509 146.8474 15.13848254111984 LightSail-2 1 44420U 19036AC 21196.26113455 .00005588 00000-0 10873-2 0 9996 2 44420 24.0051 136.5602 0021358 153.3963 206.7629 14.60222470107569 Taurus 1 1 44530U 19059C 21196.19574418 .00000506 00000-0 15413-3 0 9996 2 44530 98.5531 286.7765 0015053 63.4558 296.8091 14.46105234 97095 Duchifat 3 1 44854U 19089C 21195.69478410 .00000346 00000-0 34016-4 0 9990 2 44854 36.9675 299.5312 0009171 352.6714 7.3885 14.99536888 87197 OPS-SAT 1 44878U 19092F 21196.29768228 .00000842 00000-0 46432-4 0 9992 2 44878 97.4756 19.3861 0015369 75.3770 284.9166 15.16604231 87057 TO-108 1 44881U 19093C 21196.22712291 .00000044 00000-0 12441-4 0 9996 2 44881 97.9239 274.7531 0014416 197.9317 162.1371 14.81462705 84841 FloripaSat 1 1 44885U 19093G 21196.23209567 .00000263 00000-0 39571-4 0 9994 2 44885 97.9263 275.3840 0013882 206.0356 154.0132 14.82324303 84884 RS-44 1 44909U 19096E 21196.22578321 .00000029 00000-0 69173-4 0 9991 2 44909 82.5214 94.3630 0218145 28.4328 332.8473 12.79710897 72418 SwampSat-2 1 45115U 19071E 21196.28102130 .00044795 00000-0 61703-3 0 9999 2 45115 51.6330 236.9009 0008896 31.0658 329.0858 15.56737725 81775 HO-107 1 45119U 19071J 21196.26509486 .00002154 00000-0 71373-4 0 9994 2 45119 51.6412 262.0168 0011582 32.3682 327.8009 15.35983587 81447 Phoenix 1 45258U 98067RB 21196.28748966 .00007476 00000-0 10751-3 0 9994 2 45258 51.6381 189.5766 0005882 5.8132 354.2927 15.57178995 79548 AztechSat-1 1 45261U 98067RE 21196.29600406 .00030941 00000-0 28733-3 0 9997 2 45261 51.6346 176.8482 0006966 28.1591 331.9780 15.67129330 79749 QARMAN 1 45263U 98067RG 21196.22179822 .00018963 00000-0 21146-3 0 9996 2 45263 51.6368 183.1387 0006764 20.6470 339.4796 15.62821408 79682 Quetzal 1 1 45598U 98067RL 21196.23751902 .00016214 00000-0 19706-3 0 9999 2 45598 51.6384 187.7710 0002707 72.0213 288.1076 15.60725716 68895 BY70-2 1 45857U 20042B 21196.28405502 .00001174 00000-0 17321-3 0 9992 2 45857 97.9835 271.7424 0012634 120.7386 239.4972 14.77109804 55650 UPMSat 2 1 46276U 20061E 21196.13099007 .00000494 00000-0 28703-4 0 9993 2 46276 97.4313 269.3527 0000291 120.2352 239.8910 15.16513908 47737 AmicalSat 1 46287U 20061R 21196.13188757 .00000664 00000-0 44082-4 0 9993 2 46287 97.4865 268.7917 0003112 33.0931 327.0493 15.10534997 47524 SALSAT 1 46495U 20068K 21196.48029187 .00000174 00000-0 17331-4 0 9993 2 46495 97.6957 133.8114 0016441 344.7251 15.3471 15.03492834 43542 BY70-3 1 46839U 20079N 21195.98543029 .00002501 00000-0 78615-4 0 9995 2 46839 97.2395 269.2962 0008883 104.5197 20.5610 15.33875404 38428 SPOC 1 46921U 98067RR 21196.22759599 .00006943 00000-0 10896-3 0 9998 2 46921 51.6405 197.4748 0001372 153.4332 206.6729 15.54900491 39180 Bobcat-1 1 46922U 98067RS 21196.27388360 .00011593 00000-0 16501-3 0 9994 2 46922 51.6413 195.5568 0000793 138.2750 221.8302 15.56835475 39176 Neutron-1 1 46923U 98067RT 21196.30970084 .00006796 00000-0 10729-3 0 9994 2 46923 51.6406 197.2705 0001117 174.6859 185.4144 15.54771769 39224 CAPE 3 1 47309U 21002A 21196.25764514 .00001313 00000-0 69934-4 0 9994 2 47309 60.6808 187.9955 0044553 63.0877 297.4751 15.20849464 27118 AO-109 1 47311U 21002C 21196.28349003 .00000562 00000-0 36323-4 0 9993 2 47311 60.6841 187.0122 0039421 62.7833 297.7262 15.21737603 27102 MiTEE 1 1 47314U 21002F 21196.26162402 .00001971 00000-0 92689-4 0 9992 2 47314 60.6828 185.7245 0038704 54.3997 306.0686 15.23255893 27148 ExoCube 2 1 47319U 21002L 21196.26082902 .00000996 00000-0 55468-4 0 9993 2 47319 60.6813 187.4439 0040902 63.5956 296.9320 15.21357699 27069 UVSQ-SAT 1 47438U 21006AB 21195.75864998 .00000676 00000-0 41678-4 0 9998 2 47438 97.4856 256.4923 0012861 11.5408 348.6115 15.13204229 26189 YUSAT 1 1 47439U 21006AC 21196.15772561 .00000887 00000-0 53565-4 0 9990 2 47439 97.4859 256.8830 0012658 10.5918 349.5577 15.13207552 26244 SOMP 2b 1 47445U 21006AJ 21196.10658672 .00000751 00000-0 46108-4 0 9993 2 47445 97.4828 256.7297 0012574 14.4083 345.7504 15.13042756 26236 IDEASSat 1 47458U 21006AX 21196.12199162 .00000761 00000-0 46829-4 0 9994 2 47458 97.4920 256.9182 0011633 12.9803 347.1725 15.12906264 26239 RSP-01 1 47925U 98067SB 21196.25160251 .00007195 00000-0 12437-3 0 9990 2 47925 51.6413 202.1169 0002099 112.5005 247.6207 15.52119191 19096 TAUSAT-1 1 47926U 98067SC 21196.27719010 .00008234 00000-0 13770-3 0 9992 2 47926 51.6404 201.5369 0002955 119.2633 240.8653 15.52832930 19097 Tsuru 1 47927U 98067SD 21196.25940958 .00006419 00000-0 11263-3 0 9996 2 47927 51.6413 202.1689 0002226 113.7623 246.3600 15.51905536 19094 STARS-EC 1 47928U 98067SE 21196.25317408 .00009458 00000-0 15982-3 0 9993 2 47928 51.6409 202.1205 0004197 213.3694 146.7032 15.52334293 19075 Maya-2 1 47929U 98067SF 21196.25691695 .00006376 00000-0 11180-3 0 9999 2 47929 51.6413 202.1522 0002361 112.2868 247.8372 15.51935128 19055 OPUSAT-II 1 47930U 98067SG 21196.23085364 .00010649 00000-0 17638-3 0 9991 2 47930 51.6410 201.9801 0002292 97.9295 262.1956 15.52748570 19093 GuaraniSat-1 1 47931U 98067SH 21196.25585673 .00006346 00000-0 11126-3 0 9997 2 47931 51.6414 202.1466 0002409 111.5656 248.5591 15.51948616 19097 CubeSX-Sirius-HSE 1 47951U 21022V 21195.97999435 -.00000165 00000-0 -71094-5 0 9996 2 47951 97.5558 97.5836 0020691 215.0297 267.7377 15.05699010 17192 CubeSX-HSE 1 47952U 21022W 21196.03906706 -.00000185 00000-0 -84360-5 0 9996 2 47952 97.5564 97.6456 0020528 214.3924 244.2759 15.05737290 17206 KSU-Cubesat 1 47954U 21022Y 21196.28085606 .00000953 00000-0 69701-4 0 9994 2 47954 97.5569 97.9015 0020671 213.0238 146.9700 15.05826621 16963 GRBAlpha 1 47959U 21022AD 21196.04425350 -.00000156 00000-0 -64758-5 0 9992 2 47959 97.5567 97.6596 0020484 214.8982 270.6406 15.05736334 16020 Orbicraft-Zorkiy 1 47960U 21022AE 21194.70220969 -.00000062 00000-0 26072-8 0 9999 2 47960 97.5576 96.3734 0020077 219.7328 222.3278 15.05803650 16519 STECCO 1 47962U 21022AG 21196.36324912 .00001009 00000-0 71675-4 0 9994 2 47962 97.5549 98.1255 0015768 209.7744 288.1467 15.06862659 16077 DO-111 1 47963U 21022AH 21196.24330011 .00001221 00000-0 84600-4 0 9997 2 47963 97.5565 98.0850 0018412 205.7596 154.2717 15.07377709 16086 MO-110 1 47964U 21022AJ 21196.25169494 .00000561 00000-0 41394-4 0 9993 2 47964 97.5560 98.0700 0018875 206.1133 153.9144 15.07134051 16060 RamSat 1 48850U 98067SL 21196.26262878 .00004323 00000-0 83717-4 0 9997 2 48850 51.6410 203.6712 0003488 246.1267 113.9357 15.49986826 4827 MO-112 1 48868U 98067SP 21196.26729890 .00009376 00000-0 17190-3 0 9992 2 48868 51.6410 203.7024 0001801 255.9848 104.0941 15.50024666 3605 TUBIN 1 48900U 21059X 21196.34603905 .00000465 00000-0 30669-4 0 9990 2 48900 97.5129 324.8956 0010480 176.6075 183.5229 15.12175292 2959 /EX
